1 Minute Report
Date Time Wind Direction Wind Speed Wind Gust Wind Variable Altimeter Temperature Dewpoint Relative Humidity Visibility Ceiling Precip Present Weather Density Alt Wind Chill Heat Index
18/01/23 23:47 270 05 N/A N/A 29.61 37(F), 3(C) 36(F), 2(C) 93% 10 SCT034 SCT048 BKN050 N/A Missing N/A 33 F N/A 6728
18/01/23 23:46 260 05 N/A N/A 29.61 37(F), 3(C) 36(F), 2(C) 93% 10 SCT034 SCT044 BKN050 N/A Missing N/A 33 F N/A 6727
18/01/23 23:45 260 05 N/A N/A 29.61 37(F), 3(C) 36(F), 2(C) 93% 10 SCT034 BKN050 BKN060 N/A Missing N/A 33 F N/A 6726
18/01/23 23:44 260 04 N/A N/A 29.61 37(F), 3(C) 36(F), 2(C) 93% 10 SCT034 BKN050 BKN060 N/A Missing N/A 37 F N/A 6725
18/01/23 23:43 260 04 N/A N/A 29.61 37(F), 3(C) 36(F), 2(C) 93% 10 SCT034 BKN050 BKN060 N/A Missing N/A 37 F N/A 6724
18/01/23 23:42 270 06 N/A N/A 29.61 37(F), 3(C) 36(F), 2(C) 93% 10 SCT034 SCT043 BKN050 N/A Missing N/A 32 F N/A 6723
18/01/23 23:41 270 06 N/A N/A 29.61 37(F), 3(C) 36(F), 2(C) 93% 10 SCT034 SCT043 BKN050 N/A Missing N/A 32 F N/A 6722
18/01/23 23:40 260 03 N/A N/A 29.61 37(F), 3(C) 36(F), 2(C) 93% 10 SCT034 BKN048 BKN050 N/A Missing N/A 37 F N/A 6721
18/01/23 23:39 250 03 N/A N/A 29.61 37(F), 3(C) 36(F), 2(C) 93% 10 SCT034 BKN048 BKN050 N/A Missing N/A 37 F N/A 6720
18/01/23 23:38 260 03 N/A N/A 29.61 37(F), 3(C) 36(F), 2(C) 93% 10 SCT034 SCT043 BKN050 N/A Missing N/A 37 F N/A 6719
18/01/23 23:37 260 03 N/A N/A 29.61 37(F), 3(C) 36(F), 2(C) 93% 10 SCT034 SCT043 BKN050 N/A Missing N/A 37 F N/A 6718
18/01/23 23:36 250 04 N/A N/A 29.61 37(F), 3(C) 36(F), 2(C) 93% 10 SCT034 SCT043 BKN050 N/A Missing N/A 37 F N/A 6717
18/01/23 23:35 260 03 N/A N/A 29.61 37(F), 3(C) 36(F), 2(C) 93% 10 SCT043 BKN050 BKN055 N/A Missing N/A 37 F N/A 6716
18/01/23 23:34 250 03 N/A N/A 29.61 37(F), 3(C) 36(F), 2(C) 93% 10 SCT043 BKN050 BKN055 N/A Missing N/A 37 F N/A 6715
18/01/23 23:33 240 03 N/A N/A 29.61 37(F), 3(C) 35(F), 2(C) 93% 10 SCT043 BKN050 BKN055 N/A Missing N/A 37 F N/A 6714
18/01/23 23:32 230 03 N/A N/A 29.61 37(F), 3(C) 35(F), 2(C) 93% 10 SCT046 BKN050 BKN055 N/A Missing N/A 37 F N/A 6713
18/01/23 23:31 230 03 N/A N/A 29.61 37(F), 3(C) 35(F), 2(C) 93% 10 SCT046 BKN050 BKN055 N/A Missing N/A 37 F N/A 6712
18/01/23 23:30 000 00 N/A N/A 29.61 37(F), 3(C) 35(F), 2(C) 93% 10 SCT044 SCT050 BKN055 N/A Missing N/A 37 F N/A 6711
18/01/23 23:29 000 00 N/A N/A 29.61 37(F), 3(C) 35(F), 2(C) 93% 10 SCT044 SCT050 BKN055 N/A Missing N/A 37 F N/A 6710
18/01/23 23:28 290 03 N/A N/A 29.61 37(F), 3(C) 35(F), 2(C) 93% 10 SCT044 BKN055 BKN075 N/A Missing N/A 37 F N/A 6709
18/01/23 23:27 310 03 N/A N/A 29.61 37(F), 3(C) 35(F), 2(C) 93% 10 SCT044 BKN055 BKN075 N/A Missing N/A 37 F N/A 6708
18/01/23 23:26 000 00 N/A N/A 29.61 37(F), 3(C) 35(F), 2(C) 93% 10 SCT044 BKN055 BKN075 N/A Missing N/A 37 F N/A 6707
18/01/23 23:25 000 00 N/A N/A 29.61 37(F), 3(C) 35(F), 2(C) 93% 10 SCT055 BKN075 N/A Missing N/A 37 F N/A 6706
18/01/23 23:24 300 03 N/A N/A 29.61 37(F), 3(C) 35(F), 2(C) 93% 10 SCT055 BKN075 N/A Missing N/A 37 F N/A 6705
18/01/23 23:23 300 03 N/A N/A 29.60 38(F), 3(C) 35(F), 2(C) 93% 10 SCT040 SCT046 BKN055 N/A Missing N/A 38 F N/A 6704
18/01/23 23:22 300 03 N/A N/A 29.60 38(F), 3(C) 35(F), 2(C) 93% 10 SCT040 SCT046 BKN055 N/A Missing N/A 38 F N/A 6703
18/01/23 23:21 300 03 N/A N/A 29.60 38(F), 3(C) 35(F), 2(C) 93% 10 SCT042 BKN055 BKN075 N/A Missing N/A 38 F N/A 6702
18/01/23 23:20 300 03 N/A N/A 29.60 38(F), 3(C) 35(F), 2(C) 93% 10 SCT042 BKN055 BKN075 N/A Missing N/A 38 F N/A 6701
18/01/23 23:19 290 03 N/A N/A 29.60 38(F), 3(C) 35(F), 2(C) 93% 10 SCT042 BKN055 BKN075 N/A Missing N/A 38 F N/A 6700
18/01/23 23:18 000 00 N/A N/A 29.60 38(F), 3(C) 35(F), 2(C) 93% 10 SCT042 BKN055 OVC090 N/A Missing N/A 38 F N/A 6699
18/01/23 23:17 000 00 N/A N/A 29.60 39(F), 4(C) 36(F), 2(C) 87% 10 SCT042 BKN055 OVC090 N/A Missing N/A 39 F N/A 6698
18/01/23 23:16 000 00 N/A N/A 29.60 39(F), 4(C) 36(F), 2(C) 87% 10 SCT042 BKN055 OVC075 N/A Missing N/A 39 F N/A 6697
18/01/23 23:15 000 00 N/A N/A 29.60 38(F), 3(C) 36(F), 2(C) 93% 10 SCT042 BKN055 OVC065 N/A Missing N/A 38 F N/A 6696
18/01/23 23:14 000 00 N/A N/A 29.60 38(F), 3(C) 36(F), 2(C) 93% 10 SCT042 BKN055 OVC065 N/A Missing N/A 38 F N/A 6695
18/01/23 23:13 000 00 N/A N/A 29.60 38(F), 3(C) 35(F), 2(C) 93% 10 SCT042 OVC055 N/A Missing N/A 38 F N/A 6694
18/01/23 23:12 000 00 N/A N/A 29.60 38(F), 3(C) 35(F), 2(C) 93% 10 SCT042 OVC055 N/A Missing N/A 38 F N/A 6693
18/01/23 23:11 000 00 N/A N/A 29.60 38(F), 3(C) 35(F), 2(C) 93% 10 SCT042 OVC055 N/A Missing N/A 38 F N/A 6692
18/01/23 23:10 240 03 N/A N/A 29.60 37(F), 3(C) 35(F), 2(C) 93% 10 SCT042 OVC055 N/A Missing N/A 37 F N/A 6691
18/01/23 23:09 250 03 N/A N/A 29.60 37(F), 3(C) 35(F), 2(C) 93% 10 SCT042 OVC055 N/A Missing N/A 37 F N/A 6690
18/01/23 23:08 250 03 N/A N/A 29.60 37(F), 3(C) 35(F), 2(C) 93% 10 SCT040 OVC055 N/A Missing N/A 37 F N/A 6689
18/01/23 23:07 250 03 N/A N/A 29.60 37(F), 3(C) 34(F), 1(C) 87% 10 SCT040 BKN055 OVC070 N/A Missing N/A 37 F N/A 6688
18/01/23 23:06 000 00 N/A N/A 29.60 38(F), 3(C) 34(F), 1(C) 87% 10 SCT040 BKN055 OVC070 N/A Missing N/A 38 F N/A 6687
18/01/23 23:05 000 00 N/A N/A 29.60 38(F), 3(C) 34(F), 1(C) 87% 10 SCT040 BKN055 OVC090 N/A Missing N/A 38 F N/A 6686
18/01/23 23:04 000 00 N/A N/A 29.60 38(F), 3(C) 34(F), 1(C) 87% 10 SCT040 BKN055 OVC090 N/A Missing N/A 38 F N/A 6685
18/01/23 23:03 000 00 N/A N/A 29.60 38(F), 3(C) 35(F), 2(C) 93% 10 SCT040 BKN055 OVC090 N/A Missing N/A 38 F N/A 6684
18/01/23 23:02 000 00 N/A N/A 29.60 39(F), 4(C) 35(F), 2(C) 87% 10 SCT040 BKN055 BKN070 N/A Missing N/A 39 F N/A 6683
18/01/23 23:01 000 00 N/A N/A 29.60 39(F), 4(C) 35(F), 2(C) 87% 10 SCT040 BKN055 BKN070 N/A Missing N/A 39 F N/A 6682
18/01/23 23:00 000 00 N/A N/A 29.60 39(F), 4(C) 35(F), 2(C) 87% 10 SCT040 BKN055 BKN070 N/A Missing N/A 39 F N/A 6681
18/01/23 22:59 000 00 N/A N/A 29.60 39(F), 4(C) 35(F), 2(C) 87% 10 SCT040 BKN055 BKN070 N/A Missing N/A 39 F N/A 6680
18/01/23 22:58 000 00 N/A N/A 29.60 39(F), 4(C) 35(F), 2(C) 87% 10 SCT040 BKN055 BKN070 N/A Missing N/A 39 F N/A 6679
18/01/23 22:57 000 00 N/A N/A 29.60 39(F), 4(C) 34(F), 1(C) 81% 10 SCT040 BKN055 BKN070 N/A Missing N/A 39 F N/A 6678
18/01/23 22:56 000 00 N/A N/A 29.60 39(F), 4(C) 34(F), 1(C) 81% 10 SCT040 BKN055 BKN070 N/A Missing N/A 39 F N/A 6677
18/01/23 22:55 000 00 N/A N/A 29.60 39(F), 4(C) 34(F), 1(C) 81% 10 SCT042 SCT055 BKN070 N/A Missing N/A 39 F N/A 6676
18/01/23 22:54 000 00 N/A N/A 29.60 39(F), 4(C) 34(F), 1(C) 81% 10 SCT042 SCT055 BKN070 N/A Missing N/A 39 F N/A 6675
18/01/23 22:53 000 00 N/A N/A 29.60 39(F), 4(C) 34(F), 1(C) 81% 10 SCT042 SCT055 BKN070 N/A Missing N/A 39 F N/A 6674
18/01/23 22:52 250 03 N/A N/A 29.60 39(F), 4(C) 34(F), 1(C) 81% 10 SCT042 BKN070 OVC090 N/A Missing N/A 39 F N/A 6673
18/01/23 22:51 260 03 N/A N/A 29.60 39(F), 4(C) 34(F), 1(C) 81% 10 SCT042 BKN070 OVC090 N/A Missing N/A 39 F N/A 6672
18/01/23 22:50 270 03 N/A N/A 29.60 39(F), 4(C) 35(F), 2(C) 87% 10 SCT042 BKN070 OVC080 N/A Missing N/A 39 F N/A 6671
18/01/23 22:49 270 03 N/A N/A 29.60 39(F), 4(C) 35(F), 2(C) 87% 10 SCT042 BKN070 OVC080 N/A Missing N/A 39 F N/A 6670
18/01/23 22:48 270 03 N/A N/A 29.59 40(F), 4(C) 35(F), 2(C) 87% 10 SCT042 BKN070 OVC080 N/A Missing N/A 40 F N/A 6669
18/01/23 22:47 260 03 N/A N/A 29.59 40(F), 4(C) 35(F), 2(C) 87% 10 SCT042 BKN070 OVC080 N/A Missing N/A 40 F N/A 6668
18/01/23 22:46 260 03 N/A N/A 29.59 40(F), 4(C) 35(F), 2(C) 87% 10 SCT042 BKN070 OVC080 N/A Missing N/A 40 F N/A 6667
18/01/23 22:45 260 03 N/A N/A 29.60 40(F), 4(C) 35(F), 2(C) 87% 10 SCT037 SCT045 BKN070 N/A Missing N/A 40 F N/A 6666
18/01/23 22:44 260 04 N/A N/A 29.60 40(F), 4(C) 35(F), 2(C) 87% 10 SCT037 SCT045 BKN070 N/A Missing N/A 40 F N/A 6665
18/01/23 22:43 260 03 N/A N/A 29.60 40(F), 4(C) 35(F), 2(C) 87% 10 SCT037 SCT045 BKN070 N/A Missing N/A 40 F N/A 6664
18/01/23 22:42 260 03 N/A N/A 29.60 40(F), 4(C) 35(F), 2(C) 87% 10 SCT041 SCT055 BKN070 N/A Missing N/A 40 F N/A 6663
18/01/23 22:41 260 04 N/A N/A 29.60 40(F), 4(C) 35(F), 2(C) 87% 10 SCT041 SCT055 BKN070 N/A Missing N/A 40 F N/A 6662
18/01/23 22:40 260 04 N/A N/A 29.59 40(F), 4(C) 35(F), 2(C) 87% 10 SCT038 SCT046 BKN070 N/A Missing N/A 40 F N/A 6661
18/01/23 22:39 270 04 N/A N/A 29.59 40(F), 4(C) 35(F), 2(C) 87% 10 SCT038 SCT046 BKN070 N/A Missing N/A 40 F N/A 6660
18/01/23 22:38 270 04 N/A N/A 29.59 40(F), 4(C) 35(F), 2(C) 87% 10 SCT038 SCT049 BKN070 N/A Missing N/A 40 F N/A 6659
18/01/23 22:37 270 04 N/A N/A 29.59 40(F), 4(C) 34(F), 1(C) 81% 10 SCT038 SCT049 BKN070 N/A Missing N/A 40 F N/A 6658
18/01/23 22:36 260 04 N/A N/A 29.59 40(F), 4(C) 34(F), 1(C) 81% 10 SCT038 SCT049 BKN070 N/A Missing N/A 40 F N/A 6657
18/01/23 22:35 270 05 N/A N/A 29.59 40(F), 4(C) 34(F), 1(C) 81% 10 SCT038 BKN070 BKN080 N/A Missing N/A 36 F N/A 6656
18/01/23 22:34 280 04 N/A N/A 29.59 40(F), 4(C) 34(F), 1(C) 81% 10 SCT038 BKN070 BKN080 N/A Missing N/A 40 F N/A 6655
18/01/23 22:33 280 04 N/A N/A 29.59 40(F), 4(C) 34(F), 1(C) 81% 10 SCT038 SCT049 BKN070 N/A Missing N/A 40 F N/A 6654
18/01/23 22:32 290 05 N/A N/A 29.59 40(F), 4(C) 34(F), 1(C) 81% 10 SCT038 SCT049 BKN070 N/A Missing N/A 36 F N/A 6653
18/01/23 22:31 280 05 N/A N/A 29.59 40(F), 4(C) 34(F), 1(C) 81% 10 SCT038 SCT049 BKN070 N/A Missing N/A 36 F N/A 6652
18/01/23 22:30 280 06 N/A N/A 29.59 40(F), 4(C) 34(F), 1(C) 81% 10 SCT038 SCT049 BKN080 N/A Missing N/A 36 F N/A 6651
18/01/23 22:29 290 07 N/A N/A 29.59 40(F), 4(C) 34(F), 1(C) 81% 10 SCT038 SCT049 BKN080 N/A Missing N/A 35 F N/A 6650
18/01/23 22:28 290 07 N/A N/A 29.59 40(F), 4(C) 34(F), 1(C) 81% 10 SCT038 SCT049 BKN080 N/A Missing N/A 35 F N/A 6649
18/01/23 22:27 290 07 N/A N/A 29.59 40(F), 4(C) 34(F), 1(C) 81% 10 SCT038 SCT049 BKN080 N/A Missing N/A 35 F N/A 6648
18/01/23 22:26 290 09 N/A N/A 29.59 40(F), 4(C) 34(F), 1(C) 81% 10 SCT038 SCT049 BKN080 N/A Missing N/A 34 F N/A 6647
18/01/23 22:25 290 08 N/A N/A 29.59 41(F), 5(C) 34(F), 1(C) 75% 10 SCT038 SCT049 BKN080 N/A Missing N/A 36 F N/A 6646
18/01/23 22:24 290 07 N/A N/A 29.59 41(F), 5(C) 34(F), 1(C) 75% 10 SCT038 SCT049 BKN080 N/A Missing N/A 36 F N/A 6645
18/01/23 22:23 290 09 15 N/A 29.59 41(F), 5(C) 34(F), 1(C) 75% 10 SCT038 SCT049 BKN110 N/A Missing N/A 35 F N/A 6644
18/01/23 22:22 290 09 15 N/A 29.58 41(F), 5(C) 33(F), 1(C) 75% 10 SCT038 SCT046 SCT049 N/A Missing N/A 35 F N/A 6643
18/01/23 22:21 300 08 15 N/A 29.58 41(F), 5(C) 33(F), 1(C) 75% 10 SCT038 SCT046 SCT049 N/A Missing N/A 36 F N/A 6642
18/01/23 22:20 310 08 15 N/A 29.58 41(F), 5(C) 33(F), 1(C) 75% 10 SCT038 SCT049 SCT080 N/A Missing N/A 36 F N/A 6641
18/01/23 22:19 300 07 15 N/A 29.58 41(F), 5(C) 33(F), 1(C) 75% 10 SCT038 SCT049 SCT080 N/A Missing N/A 36 F N/A 6640
18/01/23 22:18 300 05 15 N/A 29.58 41(F), 5(C) 33(F), 1(C) 75% 10 SCT038 SCT049 SCT080 N/A Missing N/A 38 F N/A 6639
18/01/23 22:17 300 07 15 N/A 29.58 41(F), 5(C) 33(F), 1(C) 75% 10 SCT038 SCT080 SCT110 N/A Missing N/A 36 F N/A 6638
18/01/23 22:16 300 09 15 N/A 29.58 41(F), 5(C) 32(F), 0(C) 70% 10 SCT040 SCT080 SCT110 N/A Missing N/A 35 F N/A 6637
18/01/23 22:15 300 09 15 N/A 29.58 41(F), 5(C) 32(F), 0(C) 70% 10 SCT040 SCT048 SCT080 N/A Missing N/A 35 F N/A 6636
18/01/23 22:14 290 10 15 N/A 29.58 41(F), 5(C) 32(F), 0(C) 70% 10 SCT040 SCT048 SCT080 N/A Missing N/A 35 F N/A 6635
18/01/23 22:13 290 10 15 N/A 29.58 42(F), 6(C) 32(F), 0(C) 65% 10 SCT040 SCT048 SCT080 N/A Missing N/A 36 F N/A 6634
18/01/23 22:12 290 08 N/A N/A 29.58 42(F), 6(C) 32(F), 0(C) 65% 10 SCT040 SCT048 SCT080 N/A Missing N/A 37 F N/A 6633
18/01/23 22:11 290 07 N/A N/A 29.58 42(F), 6(C) 32(F), 0(C) 65% 10 SCT040 SCT048 SCT080 N/A Missing N/A 38 F N/A 6632
18/01/23 22:10 280 07 N/A N/A 29.57 42(F), 6(C) 32(F), 0(C) 65% 10 SCT080 SCT110 N/A Missing N/A 38 F N/A 6631
18/01/23 22:09 270 06 N/A N/A 29.57 42(F), 6(C) 32(F), 0(C) 65% 10 SCT080 SCT110 N/A Missing N/A 38 F N/A 6630
18/01/23 22:08 270 06 N/A N/A 29.57 43(F), 6(C) 32(F), 0(C) 65% 10 SCT080 SCT110 N/A Missing N/A 39 F N/A 6629
18/01/23 22:07 260 07 N/A N/A 29.57 43(F), 6(C) 32(F), 0(C) 65% 10 CLR N/A Missing N/A 39 F N/A 6628
18/01/23 22:06 260 07 N/A N/A 29.57 43(F), 6(C) 32(F), 0(C) 65% 10 CLR N/A Missing N/A 39 F N/A 6627
18/01/23 22:05 260 07 N/A N/A 29.57 43(F), 6(C) 32(F), 0(C) 65% 10 CLR N/A Missing N/A 39 F N/A 6626
18/01/23 22:04 260 08 N/A N/A 29.57 43(F), 6(C) 32(F), 0(C) 65% 10 CLR N/A Missing N/A 38 F N/A 6625
18/01/23 22:03 250 08 N/A 220V280 29.57 43(F), 6(C) 32(F), 0(C) 65% 10 CLR N/A Missing N/A 38 F N/A 6624
18/01/23 22:02 260 08 20 220V280 29.57 43(F), 6(C) 33(F), 1(C) 70% 10 CLR N/A Missing N/A 38 F N/A 6623
18/01/23 22:01 260 08 20 N/A 29.56 43(F), 6(C) 33(F), 1(C) 70% 10 CLR N/A Missing N/A 38 F N/A 6622
18/01/23 22:00 250 08 20 N/A 29.57 43(F), 6(C) 33(F), 1(C) 70% 10 SCT045 N/A Missing N/A 38 F N/A 6621
18/01/23 21:59 250 07 20 N/A 29.57 43(F), 6(C) 33(F), 1(C) 70% 10 SCT045 N/A Missing N/A 39 F N/A 6620
18/01/23 21:58 250 07 20 N/A 29.57 44(F), 7(C) 34(F), 1(C) 66% 10 SCT045 N/A Missing N/A 40 F N/A 6619
18/01/23 21:57 250 06 20 N/A 29.57 44(F), 7(C) 34(F), 1(C) 66% 10 SCT041 SCT048 N/A Missing N/A 41 F N/A 6618
18/01/23 21:56 250 06 20 200V270 29.57 45(F), 7(C) 35(F), 2(C) 70% 10 SCT041 SCT048 N/A Missing N/A 42 F N/A 6617
18/01/23 21:55 260 08 20 N/A 29.56 45(F), 7(C) 35(F), 2(C) 70% 10 SCT041 SCT048 N/A Missing N/A 41 F N/A 6616
18/01/23 21:54 260 08 20 220V280 29.56 45(F), 7(C) 35(F), 2(C) 70% 10 SCT041 SCT048 N/A Missing N/A 41 F N/A 6615
18/01/23 21:53 250 10 20 N/A 29.56 45(F), 7(C) 36(F), 2(C) 70% 10 SCT041 SCT048 N/A Missing N/A 40 F N/A 6614
18/01/23 21:52 250 09 20 N/A 29.57 45(F), 7(C) 36(F), 2(C) 70% 10 SCT041 SCT048 N/A Missing N/A 40 F N/A 6613
18/01/23 21:51 260 08 17 N/A 29.56 45(F), 7(C) 36(F), 2(C) 70% 10 SCT041 SCT048 N/A Missing N/A 41 F N/A 6612
18/01/23 21:50 260 09 17 N/A 29.56 45(F), 7(C) 36(F), 2(C) 70% 10 SCT041 SCT048 N/A Missing N/A 40 F N/A 6611
18/01/23 21:49 260 08 17 N/A 29.56 45(F), 7(C) 36(F), 2(C) 70% 10 SCT041 SCT048 N/A Missing N/A 41 F N/A 6610
18/01/23 21:48 260 09 17 N/A 29.56 45(F), 7(C) 36(F), 2(C) 70% 10 SCT041 SCT048 SCT120 N/A Missing N/A 40 F N/A 6609
18/01/23 21:47 260 07 17 N/A 29.56 45(F), 7(C) 36(F), 2(C) 70% 10 SCT041 SCT048 SCT120 N/A Missing N/A 41 F N/A 6608